Terminal Aerodrome Forecast
Issued by NWS Paducah, KY

Home | Current Version | Previous Version | Text Only | Print | Product List | Glossary On
Versions: 1 2 3 4 5 6 7 8 9 10 11 12 13 14 15 16
000
FTUS43 KPAH 171700
TAFEVV
TAF
KEVV 171720Z 1718/1818 25010KT P6SM SKC
     FM171900 27012G19KT P6SM SKC
     FM172200 29006KT P6SM BKN040
     FM181400 31009KT P6SM BKN040=

USA.gov is the U.S. government's official web portal to all federal, state and local government web resources and services.